Papa, Hungary

11:07 AM CEST on September 28, 2016 (GMT +0200)
Papa

Weather History for LHPA - September, 2013

Change the Weather History Date:

Tuesday, September 24, 2013

  Actual Average Record
Temperature  
Mean Temperature 58 °F -  
Max Temperature 69 °F - - ()
Min Temperature 48 °F - - ()
Degree Days  
Heating Degree Days 6    
Growing Degree Days 8 (Base 50)    
Moisture  
Dew Point 50 °F    
Average Humidity 66    
Maximum Humidity 100    
Minimum Humidity 46    
Precipitation  
Precipitation 0.00 in - - ()
Sea Level Pressure  
Sea Level Pressure 29.99 in    
Wind  
Wind Speed 9 mph ()    
Max Wind Speed 18 mph    
Max Gust Speed 29 mph    
Visibility 6.2 miles    
Events      
T = Trace of Precipitation, MM = Missing Value Source: Averaged Metar Reports

Daily Weather History Graph

Daily Weather History Graph

Search for Another Location

Airport or City:

Trip Planner

Search our weather history database for the weather conditions in past years. The results will help you decide how hot, cold, wet, or windy it might be!

Date:

Astronomy

Sep. 24, 2013 Rise Set
Actual Time 6:39 AM CEST 6:43 PM CEST
Civil Twilight 6:08 AM CEST 7:14 PM CEST
Nautical Twilight 5:32 AM CEST 7:50 PM CEST
Astronomical Twilight 4:55 AM CEST 8:26 PM CEST
Moon 9:26 PM CEST (9/24) 11:58 AM CEST (9/24)
Length of Visible Light 13h 05m
Length of Day
12h 04m
Waning Gibbous, 75% of the Moon is Illuminated
Sep 24
Waning Gibbous
Sep 27
Last Quarter
Oct 5
New
Oct 12
First Quarter
Oct 19
Full

Hourly Weather History & Observations

Time (CEST) Temp. Dew Point Humidity Pressure Visibility Wind Dir Wind Speed Gust Speed Precip Events Conditions
12:15 AM 62.6 °F 51.8 °F 68% 30.04 in - WNW 8.9 mph - N/A   Clear
12:45 AM 60.8 °F 51.8 °F 72% 30.04 in - West 6.7 mph - N/A   Clear
1:15 AM 60.8 °F 51.8 °F 72% 30.04 in - West 6.7 mph - N/A   Clear
1:45 AM 62.6 °F 50.0 °F 63% 30.04 in - WNW 8.9 mph - N/A   Clear
2:15 AM 62.6 °F 50.0 °F 63% 30.04 in - NW 13.4 mph - N/A   Clear
2:45 AM 62.6 °F 50.0 °F 63% 30.01 in - NW 15.7 mph - N/A   Clear
3:15 AM 62.6 °F 48.2 °F 59% 30.01 in - NW 13.4 mph - N/A   Clear
3:45 AM 62.6 °F 48.2 °F 59% 30.01 in - NW 13.4 mph - N/A   Clear
4:15 AM 62.6 °F 48.2 °F 59% 30.01 in - WNW 8.9 mph - N/A   Clear
4:45 AM 59.0 °F 50.0 °F 72% 30.01 in - West 4.5 mph - N/A   Clear
5:15 AM 59.0 °F 50.0 °F 72% 30.01 in - West 8.9 mph - N/A   Clear
5:45 AM 60.8 °F 48.2 °F 63% 30.01 in - West 11.2 mph - N/A   Clear
6:15 AM 60.8 °F 48.2 °F 63% 30.01 in - WNW 13.4 mph - N/A   Clear
6:45 AM 60.8 °F 48.2 °F 63% 30.01 in - WNW 11.2 mph - N/A   Clear
7:15 AM 60.8 °F 50.0 °F 68% 30.01 in - NW 4.5 mph - N/A   Clear
7:45 AM 60.8 °F 50.0 °F 68% 30.01 in - West 6.7 mph - N/A   Clear
8:15 AM 59.0 °F 50.0 °F 72% 30.01 in - SW 4.5 mph - N/A   Clear
8:45 AM 60.8 °F 50.0 °F 68% 30.01 in - WNW 8.9 mph - N/A   Clear
9:15 AM 60.8 °F 50.0 °F 68% 30.01 in 6.2 mi WNW 11.2 mph - N/A   Mostly Cloudy
9:45 AM 62.6 °F 50.0 °F 63% 30.04 in 6.2 mi WNW 11.2 mph - N/A   Mostly Cloudy
10:15 AM 62.6 °F 50.0 °F 63% 30.04 in 6.2 mi WNW 11.2 mph - N/A   Mostly Cloudy
10:45 AM 62.6 °F 50.0 °F 63% 30.04 in 6.2 mi NW 8.9 mph - N/A   Mostly Cloudy
11:15 AM 64.4 °F 51.8 °F 64% 30.01 in 6.2 mi NW 8.9 mph - N/A   Mostly Cloudy
11:30 AM 66.2 °F 50.0 °F 56% 30.01 in 6.2 mi NNW 15.7 mph 26.8 mph N/A   Mostly Cloudy
11:45 AM 66.2 °F 48.2 °F 52% 30.01 in 6.2 mi NNW 17.9 mph 29.1 mph N/A   Mostly Cloudy
12:15 PM 68.0 °F 48.2 °F 49% 30.01 in 6.2 mi NNW 17.9 mph 29.1 mph N/A   Scattered Clouds
12:45 PM 68.0 °F 48.2 °F 49% 30.01 in 6.2 mi NNW 15.7 mph 26.8 mph N/A   Scattered Clouds
1:15 PM 68.0 °F 48.2 °F 49% 30.01 in 6.2 mi NNW 15.7 mph 26.8 mph N/A   Scattered Clouds
1:45 PM 69.8 °F 48.2 °F 46% 30.01 in 6.2 mi NNW 17.9 mph - N/A   Scattered Clouds
2:15 PM 68.0 °F 48.2 °F 49% 29.98 in 6.2 mi NNW 15.7 mph 26.8 mph N/A   Scattered Clouds
2:45 PM 69.8 °F 50.0 °F 49% 29.98 in 6.2 mi NNW 11.2 mph 22.4 mph N/A   Scattered Clouds
3:15 PM 68.0 °F 48.2 °F 49% 29.98 in 6.2 mi NW 11.2 mph - N/A   Scattered Clouds
3:45 PM 68.0 °F 48.2 °F 49% 29.98 in - NNW 11.2 mph - N/A   Clear
4:15 PM 68.0 °F 48.2 °F 49% 29.98 in - NNW 11.2 mph - N/A   Clear
4:45 PM 68.0 °F 50.0 °F 52% 29.95 in - NNW 11.2 mph - N/A   Clear
5:15 PM 68.0 °F 50.0 °F 52% 29.95 in - NNW 11.2 mph - N/A   Clear
5:45 PM 66.2 °F 50.0 °F 56% 29.95 in - North 8.9 mph - N/A   Clear
6:15 PM 64.4 °F 51.8 °F 64% 29.95 in - North 4.5 mph - N/A   Clear
6:45 PM 60.8 °F 50.0 °F 68% 29.95 in - North 4.5 mph - N/A   Clear
7:15 PM 60.8 °F 50.0 °F 68% 29.95 in - North 4.5 mph - N/A   Clear
7:45 PM 55.4 °F 51.8 °F 88% 29.95 in - SSE 4.5 mph - N/A   Clear
8:15 PM 55.4 °F 50.0 °F 82% 29.95 in - NE 2.2 mph - N/A   Clear
8:45 PM 53.6 °F 50.0 °F 88% 29.95 in - SE 2.2 mph - N/A   Clear
9:15 PM 51.8 °F 50.0 °F 94% 29.95 in - SE 2.2 mph - N/A   Clear
9:45 PM 51.8 °F 50.0 °F 94% 29.95 in - SSE 2.2 mph - N/A   Clear
10:15 PM 51.8 °F 50.0 °F 94% 29.95 in - SSE 4.5 mph - N/A   Clear
10:45 PM 50.0 °F 48.2 °F 94% 29.95 in - SSE 2.2 mph - N/A   Clear
11:15 PM 48.2 °F 48.2 °F 100% 29.95 in - Calm Calm - N/A   Clear
11:45 PM 48.2 °F 48.2 °F 100% 29.95 in - Calm Calm - N/A   Clear